Regional Weather Roundup
Issued by NWS

Home | Current Version | Previous Version | Text Only | Print | Product List | Glossary Off
Versions: 1 2 3 4 5 6 7 8 9 10 11 12 13 14 15 16 17 18 19 20 21 22 23 24 25 26 27 28 29 30 31 32 33 34 35 36 37 38 39 40 41 42 43 44 45 46 47 48 49 50

000
ASUS43 KFSD 281210
RWRSD

WEATHER ROUNDUP FOR SOUTH DAKOTA
NATIONAL WEATHER SERVICE SIOUX FALLS SD
700 AM CDT TUE JUL 28 2015

NOTE: "FAIR" INDICATES FEW OR NO CLOUDS BELOW 12,000 FEET WITH NO
SIGNIFICANT WEATHER AND/OR OBSTRUCTIONS TO VISIBILITY.


SDZ001>005-009-010-012>017-281300-
NORTHWEST AND NORTH CENTRAL SOUTH DAKOTA

CITY           SKY/WX    TMP DP  RH WIND       PRES   REMARKS
BUFFALO          N/A     52  47  83 SW18      29.83R
FAITH            N/A     55  47  74 W20G28    29.86R
MOBRIDGE       MOCLDY    62  58  86 W15       29.77R
$$

SDZ012>016-024>037-041>051-057-063-072>074-281300-
SOUTHWEST AND SOUTH CENTRAL SOUTH DAKOTA

CITY           SKY/WX    TMP DP  RH WIND       PRES   REMARKS
RAPID CTY ARPT CLEAR     56  45  66 W15       29.97R
PIERRE         PTCLDY    61  57  87 W15       29.81R
CUSTER         CLEAR     49  38  65 W8        30.03R
ELLSWORTH AFB  CLEAR     55  45  70 W12       29.96R
PHILIP         CLEAR     57  52  83 W7        29.89R
PINE RIDGE     CLEAR     54  47  77 W10       29.98R
SPEARFISH      FAIR      54  41  62 W15       29.99R
WINNER         FAIR      62  57  83 NW10      29.86R
$$

SDZ004>011-016>023-039-040-281300-
NORTHEAST SOUTH DAKOTA

CITY           SKY/WX    TMP DP  RH WIND       PRES   REMARKS
ABERDEEN       CLOUDY    68  65  90 SW13      29.71R
WATERTOWN      CLOUDY    68  65  90 S9        29.74R
BROOKINGS      CLOUDY    68  63  83 SW12      29.78R
SISSETON         N/A     69  67  93 NW5       29.69R
$$

SDZ017-020-022-023-036>040-048>070-281300-
SOUTHEAST SOUTH DAKOTA

CITY           SKY/WX    TMP DP  RH WIND       PRES   REMARKS
SIOUX FALLS    CLOUDY    69  67  93 S7        29.81R
HURON          CLOUDY    69  67  93 W3        29.75R
CHAMBERLAIN    CLOUDY    64  60  89 W16G24    29.81R
MITCHELL       CLOUDY    70  68  93 S7        29.77R
YANKTON        CLOUDY    72  66  83 MISG      29.76R
$$

ABBREVIATIONS USED IN REMARKS
   TC - TEMPERATURE IN CELSIUS
  WCI - WIND CHILL INDEX
   HX - HEAT INDEX
  VSB - VISIBILITY



USA.gov is the U.S. government's official web portal to all federal, state and local government web resources and services.